カタログに戻る

ERS 20

OV5-3

Lost軍事HEO
NORAD 2768·PAYLOAD·🇺🇸 United States

打ち上げ Apr 28, 1967 から Cape Canaveral Space Force Station

Loading…

次のパス (今後24時間)

TLE

古いSource: Space-Track

元期: Feb 11, 1975, 13:42 UTC

1 02768U 67040D   75042.57142285 -.00000859  00000-0  10000-3 0  9999
2 02768  35.1200 158.1261 7498300 182.8409 167.1313  0.50865911 13857

AllMySatでERS 20をリアルタイム追跡

Download on the App Store